Voltar ao catálogo

QIANFAN-238

AtivoComunicaçõesPO
NORAD 69867·PAYLOAD·🇨🇳 China

Lançado Jul 5, 2026 de Wenchang Space Launch Site

Loading…

Próximas Passagens (próximas 24 horas)

TLE

AtualizadoSource: Space-Track

Época: Sep 14, 2026, 12:27 UTC

1 69867U 26155V   26257.51922952 -.01802144  00000-0 -28650+1 0  9995
2 69867  89.0081  54.2967 0028767  30.2600 330.0206 13.53481013  9932

Acompanhe QIANFAN-238 em tempo real com AllMySat

Download on the App Store